Weather History for KAVL - December, 2006

Change the Weather History Date:

Wednesday, December 6, 2006

  Actual Average Record
Temperature  
Mean Temperature 39 °F 41 °F  
Max Temperature 55 °F 52 °F 73 °F (1998)
Min Temperature 23 °F 31 °F 5 °F (1937)
Degree Days  
Heating Degree Days 26 24  
Month to date heating degree days 142 138  
Since 1 July heating degree days 1073 1005  
Cooling Degree Days 0 0  
Month to date cooling degree days 0 0  
Year to date cooling degree days 845 863  
Moisture  
Dew Point 21 °F    
Average Humidity 57    
Maximum Humidity 88    
Minimum Humidity 26    
Precipitation  
Precipitation 0.00 in 0.12 in 1.77 in (1976)
Month to date precipitation 0.20 0.79  
Year to date precipitation 43.85 42.77  
Snow  
Snow 0.00 in 0.10 in 1.70 in (1901)
Month to date snowfall 0.0 0.1  
Since 1 July snowfall T 0.2  
Snow Depth -    
Sea Level Pressure  
Sea Level Pressure 30.24 in    
Wind  
Wind Speed 6 mph (South)    
Max Wind Speed 22 mph    
Max Gust Speed 24 mph    
Visibility 10 miles    
Events      
T = Trace of Precipitation, MM = Missing Value Source: NWS Daily Summary

Daily Weather History Graph

Daily Weather History Graph

Search for Another Location

Airport or City:

Trip Planner

Search our weather history database for the weather conditions in past years. The results will help you decide how hot, cold, wet, or windy it might be!

Date:

Astronomy

Dec. 06, 2006 Rise Set
Actual Time 7:25 AM EST 5:17 PM EST
Civil Twilight 6:57 AM EST 5:45 PM EST
Nautical Twilight 6:25 AM EST 6:16 PM EST
Astronomical Twilight 5:54 AM EST 6:47 PM EST
Moon 6:45 PM EST (12/6) 9:19 AM EST (12/6)
Length of Visible Light 10h 48m
Length of Day
9h 52m
Waning Gibbous, 96% of the Moon is Illuminated
Dec 6
Waning Gibbous
Dec 12
Last Quarter
Dec 20
New
Dec 27
First Quarter
Jan 3
Full

Hourly Weather History & Observations

Time (EST) Temp. Windchill Dew Point Humidity Pressure Visibility Wind Dir Wind Speed Gust Speed Precip Events Conditions
12:54 AM 25.0 °F 20.7 °F 19.9 °F 81% 30.34 in 10.0 mi SSW 3.5 mph - N/A   Clear
1:54 AM 25.0 °F - 19.9 °F 81% 30.34 in 10.0 mi Calm Calm - N/A   Clear
2:54 AM 26.1 °F - 19.9 °F 78% 30.33 in 10.0 mi Calm Calm - N/A   Clear
3:54 AM 24.1 °F - 19.9 °F 84% 30.32 in 10.0 mi Calm Calm - N/A   Clear
4:54 AM 25.0 °F - 19.9 °F 81% 30.32 in 10.0 mi Calm Calm - N/A   Clear
5:54 AM 25.0 °F - 19.9 °F 81% 30.32 in 10.0 mi Calm Calm - N/A   Clear
6:54 AM 25.0 °F - 19.9 °F 81% 30.33 in 10.0 mi Calm Calm - N/A   Clear
7:54 AM 25.0 °F 20.7 °F 21.0 °F 85% 30.34 in 10.0 mi SW 3.5 mph - N/A   Clear
8:54 AM 28.0 °F 24.2 °F 21.9 °F 78% 30.35 in 10.0 mi SE 3.5 mph - N/A   Clear
9:54 AM 35.1 °F 30.1 °F 25.0 °F 67% 30.34 in 10.0 mi ESE 5.8 mph - N/A   Clear
10:54 AM 43.0 °F 37.2 °F 21.9 °F 43% 30.30 in 10.0 mi SSE 10.4 mph - N/A   Clear
11:54 AM 46.0 °F 41.4 °F 21.0 °F 37% 30.26 in 10.0 mi ESE 9.2 mph - N/A   Clear
12:54 PM 52.0 °F - 21.0 °F 30% 30.21 in 10.0 mi South 13.8 mph 20.7 mph N/A   Clear
1:54 PM 53.1 °F - 19.0 °F 26% 30.17 in 10.0 mi South 16.1 mph - N/A   Clear
2:54 PM 51.8 °F - 21.2 °F 30% 30.14 in 10.0 mi South 17.3 mph 21.9 mph N/A   Mostly Cloudy
3:54 PM 52.0 °F - 19.9 °F 28% 30.14 in 10.0 mi South 16.1 mph - N/A   Overcast
4:54 PM 50.0 °F - 19.9 °F 31% 30.15 in 10.0 mi South 11.5 mph 16.1 mph N/A   Scattered Clouds
5:54 PM 46.9 °F - 21.0 °F 36% 30.16 in 10.0 mi South 5.8 mph - N/A   Mostly Cloudy
6:54 PM 46.0 °F 43.1 °F 21.9 °F 39% 30.17 in 10.0 mi South 5.8 mph - N/A   Overcast
7:54 PM 45.0 °F 43.5 °F 24.1 °F 44% 30.16 in 10.0 mi SE 3.5 mph - N/A   Overcast
8:54 PM 45.0 °F - 23.0 °F 42% 30.17 in 10.0 mi Calm Calm - N/A   Overcast
9:54 PM 46.0 °F 44.8 °F 21.9 °F 39% 30.14 in 10.0 mi Variable 3.5 mph - N/A   Overcast
10:54 PM 45.0 °F 42.6 °F 21.9 °F 40% 30.12 in 10.0 mi WNW 4.6 mph - N/A   Overcast
11:54 PM 44.1 °F - 23.0 °F 43% 30.11 in 10.0 mi Calm Calm - N/A   Overcast